Regional Weather Roundup
Issued by NWS Grand Forks, ND

Home | Current Version | Previous Version | Graphics & Text | Print | Product List | Glossary On
Versions: 1 2 3 4 5 6 7 8 9 10 11 12 13 14 15 16 17 18 19 20 21 22 23 24 25 26 27 28 29 30 31 32 33 34 35 36 37 38 39 40 41 42 43 44 45 46 47 48 49 50
000
ASUS43 KFGF 231310
RWRFGF
PRAIRIE TO PINES  WEATHER ROUNDUP
NATIONAL WEATHER SERVICE EASTERN NORTH DAKOTA/GRAND FORKS ND
800 AM CDT WED JUL 23 2014

 **SATELLITE DATA USED TO AUGMENT SKY COVER AT AUTOMATED STATIONS**
 *****  WEATHER ACROSS EASTERN NORTH DAKOTA  *****

CITY           SKY/WX    TMP DP  RH WIND       PRES   REMARKS
GRAND FORKS    PTSUNNY   61  58  90 NW5       30.31R
GRAND FRKS AFB PTSUNNY   60  60  99 N5        30.32R
GRAND FRKS NWS   N/A     61 N/A N/A MISG        N/A
DEVILS LAKE    CLOUDY    63  54  72 E6        30.31S
FARGO          MOSUNNY   63  58  83 CALM      30.29S
WAHPETON ARPT  SUNNY     64  55  72 CALM      30.29F
$$

 ***** WEATHER ACROSS CENTRAL AND WESTERN NORTH DAKOTA  *****

CITY           SKY/WX    TMP DP  RH WIND       PRES   REMARKS
BISMARCK       SUNNY     66  61  84 E7        30.27S
MINOT          CLOUDY    64  62  93 E7        30.27R FOG
JAMESTOWN      LGT RAIN  63  60  90 CALM      30.31S
MINOT AFB      CLOUDY    63  63 100 NE10      30.27R
GARRISON         N/A     67  64  90 SE10      30.26R
WILLISTON      PTSUNNY   68  62  81 E6        30.22F
DICKINSON      SUNNY     64  61  90 SE6       30.22S
HETTINGER      SUNNY     64  60  87 SE8       30.24S
$$

 *****  OTHER AIRPORT OBSERVATIONS IN OUR AREA  *****

CITY           SKY/WX    TMP DP  RH WIND       PRES   REMARKS
WALHALLA         N/A     59  59 100 N5          N/A
GRAFTON AIRPOR FAIR      57  57 100 NW5       30.32R
VALLEY CITY AR FAIR      63  63 100 N5        30.32R
CANDO          CLOUDY    59  55  88 SE3       30.34S
CAVALIER APRT  FAIR      59  54  82 N5        30.33R
GWINNER        MOSUNNY   66  63  88 E3        30.31R
SHEYENNE NWR     N/A     65  61  86 CALM      29.95
ROLLA          PTSUNNY   57  57 100 CALM      30.35S
 ***** THE ABOVE OBSERVATIONS ARE NON NWS ARE NOT QUALITY
       CONTROLLED AND MAY MIS-REPORT RAIN FOR SNOW...
$$

  *****  WEATHER ACROSS NORTHERN MINNESOTA  *****

CITY           SKY/WX    TMP DP  RH WIND       PRES   REMARKS
FLAG ISLAND    CLOUDY    63  54  72 NE6       30.29R
WARROAD        NOT AVBL
ROSEAU         MOSUNNY   57  52  82 CALM      30.30R
HALLOCK        PTSUNNY   61  55  82 N7        30.31R
THF RVR FALLS  PTSUNNY   59  55  88 N6        30.30S
BAUDETTE       MOSUNNY   62  56  80 CALM      30.30R
WASKISH        MOSUNNY   59  57  94 CALM      30.29R
CROOKSTON      CLOUDY    61  55  82 CALM      30.31R
$$
  *****  WEATHER ACROSS CENTRAL AND WEST MINNESOTA  *****

CITY           SKY/WX    TMP DP  RH WIND       PRES   REMARKS
FOSSTON        CLOUDY    57  54  88 CALM      30.30S
BEMIDJI        CLOUDY    59  56  92 NW3       30.29S
PARK RAPIDS    MOSUNNY   57  56  96 CALM      30.30R
ELBOW LAKE     FAIR      65  59  81 E5        30.29F
WADENA         MOSUNNY   61  57  88 CALM      30.30S
DETROIT LAKES  PTSUNNY   63  57  82 CALM      30.31S
MOORHEAD       MOSUNNY   63  63 100 CALM      30.30S
FERGUS FALLS   SUNNY     64  55  72 E3        30.29S
MORRIS MN      SUNNY     63  61  94 CALM      30.28F
STAPLES        SUNNY     59  55  88 CALM      30.30S
$$
  *****  WEATHER ELSEWHERE ACROSS MINNESOTA  *****

CITY           SKY/WX    TMP DP  RH WIND       PRES   REMARKS
DULUTH         MOSUNNY   64  56  75 N6        30.26R
INTRNTL FALLS  SUNNY     63  53  70 NE6       30.28R
ELY            MOSUNNY   59  55  88 CALM      30.26S
CLOQUET        MOSUNNY   61  55  82 N3        30.27R
WHEATON        MOSUNNY   61  55  82 E3        30.30F
BRAINERD       MOSUNNY   63  58  83 NW3       30.29S
HIBBING        MOSUNNY   64  56  75 N5        30.28R
ALEXANDRIA     SUNNY     66  56  70 NE6       30.31R
SAINT CLOUD    SUNNY     66  57  72 N8        30.28R
MINNEAPOLIS    MOSUNNY   69  56  62 N7        30.25S
$$

  *****  WEATHER ACROSS SOUTH DAKOTA  *****

CITY           SKY/WX    TMP DP  RH WIND       PRES   REMARKS
SIOUX FALLS    PTSUNNY   65  57  75 NE7       30.30R
BROOKINGS      NOT AVBL
WATERTOWN      SUNNY     64  55  72 E7        30.30S
HURON          PTSUNNY   65  57  75 SE8       30.28R
SISSETON         N/A     65  59  81 CALM      30.29R
ABERDEEN       PTSUNNY   63  59  87 E7        30.28F
MITCHELL       CLOUDY    64  58  80 S6        30.30S
PIERRE         SUNNY     68  59  73 E15       30.22F
MOBRIDGE       SUNNY     66  60  81 MISG      30.25R
RAPID CITY     MOSUNNY   65  55  70 SW5       30.23F
$$

  *****  SOME WEATHER IN NEARBY STATES *****

CITY           SKY/WX    TMP DP  RH WIND       PRES   REMARKS
GLASGOW MT     MOSUNNY   63  58  83 E12       30.17F
GREAT FALLS MT LGT RAIN  57  55  94 NW17G29   30.13F
CHEYENNE WY    CLOUDY    62  61  96 S5        30.40S FOG
SCOTTSBLUFF NE PTSUNNY   69  59  70 SE14      30.33F
OMAHA NE       MOSUNNY   67  59  75 N7        30.23S
DES MOINES IA  MOSUNNY   71  60  68 NE10      30.17S
DAVENPORT IA   SUNNY     68  62  81 NE15      30.14S
CHICAGO IL     MOSUNNY   66  53  63 NE18      30.12R
EAU CLAIRE WI  SUNNY     66  61  84 CALM      30.23R
LA CROSSE WI   SUNNY     69  59  70 N7        30.21R
$$

  *****  SOME NATIONAL WEATHER *****

CITY           SKY/WX    TMP DP  RH WIND       PRES   REMARKS
LA GUARDIA NY  MOSUNNY   79  67  66 SW8       29.97F
RALEIGH NC     PTSUNNY   77  73  87 SW5       30.08S
ATLANTA GA     MOSUNNY   77  71  82 CALM      30.12S
NEW ORLEANS LA PTSUNNY   79  74  84 CALM      30.05R THUNDER
OKLAHOMA CITY  MOSUNNY   76  72  87 CALM      30.15R FOG
ALBUQUERQUE NM PTCLDY    69  54  58 N7        30.36R
SALT LAKE CITY PTCLDY    77  35  21 SE12      30.11R
LOS ANGELES CA PTCLDY    65  60  84 CALM      30.00R
BOISE ID       PTCLDY    63  57  81 S3        30.06S
SEATTLE WA     CLOUDY    59  58  96 W3        29.97F THUNDER
$$

*** WEATHER ACROSS MANITOBA...SASKATCHEWAN AND ONTARIO ***
                ***ONTARIO***

CITY           SKY/WX    TMP DP  RH WIND       PRES   REMARKS
GERALDTON      SUNNY     57  54  88 NW7       30.20R
THUNDER BAY    MOSUNNY   63  57  82 CALM      30.24R
SIOUX LOOKOUT  PTSUNNY   57  55  94 CALM      30.29R
TORONTO        PTSUNNY   70  61  73 N22G29    29.88R
BIG TROUT LK   MOSUNNY   61  52  72 W12G17    30.13F
PICKLE LAKE    MOSUNNY   59  46  63 NW6       30.25S
DRYDEN         PTSUNNY   55  52  88 W2        30.30R
KENORA         PTSUNNY   59  52  77 N5        30.31R
$$
                *** MANITOBA***

CITY           SKY/WX    TMP DP  RH WIND       PRES   REMARKS
BRANDON        MOSUNNY   59  54  82 E7        30.35R
DAUPHIN        SUNNY     55  52  88 VRB2      30.34R
ISLAND LAKE    MOSUNNY   63  52  67 W8        30.27S
PILOT MOUND      N/A     59  52  77 E3          N/A
THE PAS        SUNNY     61  52  72 S2        30.29S
THOMPSON       SUNNY     59  52  77 W5        30.26S
WINNIPEG       MOSUNNY   59  55  88 N2        30.33S
LYNN LAKE      SUNNY     61  52  72 SW5       30.24F
CHURCHILL      PTSUNNY   59  52  77 NW12G17   30.04R SMOKE
GILLAM         CLOUDY    61  54  77 W9        30.16S
$$
                ***SASKATCHEWAN***

CITY           SKY/WX    TMP DP  RH WIND       PRES   REMARKS
ESTEVAN        MOSUNNY   61  57  88 E7        30.27S
KINDERSLEY     PTSUNNY   63  57  82 SE10      30.16R
LLOYDMINSTER   MOSUNNY   61  55  82 SE13      30.12S
PRINCE ALBERT  CLOUDY    57  55  94 E3        30.26S
REGINA         NOT AVBL
YORKTON        SUNNY     59  54  82 SE6       30.33R
N. BATTLEFORD  NOT AVBL
LA RONGE       NOT AVBL
SASKATOON      PTSUNNY   63  55  77 SE13      30.23F
SWIFT CURRENT  NOT AVBL
$$
NOTE: THESE ARE AUTOMATED STATIONS WITH LIMITED QUALITY CONTROL
      "FAIR" INDICATES FEW OR NO CLOUDS BELOW 12,000 FEET WITH NO
      SIGNIFICANT WEATHER AND/OR OBSTRUCTIONS TO VISIBILITY.
      SKY/WX - SKY CONDITION AND SIGNIFICANT WEATHER.
      TMP - AIR TEMPERATURE.    DP   - DEWPOINT TEMPERATURE.
      RH  - RELATIVE HUMIDITY.  PRES - PRESSURE.
      HX  - HEAT INDEX.         WCI  - WIND CHILL INDEX.
$



USA.gov is the U.S. government's official web portal to all federal, state and local government web resources and services.